Weather History for Jaipur, India

Change the Weather History Date:

Thursday, February 28, 2013

  Actual Average Record
Temperature  
Mean Temperature 70 °F -  
Max Temperature 80 °F - - ()
Min Temperature 61 °F - - ()
Cooling Degree Days 6    
Growing Degree Days 20 (Base 50)    
Moisture  
Dew Point 36 °F    
Average Humidity 28    
Maximum Humidity 42    
Minimum Humidity 8    
Precipitation  
Precipitation 0.00 in - - ()
Sea Level Pressure  
Sea Level Pressure 30.06 in    
Wind  
Wind Speed 4 mph ()    
Max Wind Speed 8 mph    
Max Gust Speed -    
Visibility 2.1 miles    
Events      
T = Trace of Precipitation, MM = Missing Value Source: Averaged Metar Reports

Daily Weather History Graph

Daily Weather History Graph

Search for Another Location

Airport:

Trip Planner

Search our weather history database for the weather conditions in past years. The results will help you decide how hot, cold, wet, or windy it might be!

Date:

Astronomy

Feb. 28, 2013 Rise Set
Actual Time 6:51 AM IST 6:27 PM IST
Civil Twilight 6:28 AM IST 6:50 PM IST
Nautical Twilight 6:01 AM IST 7:17 PM IST
Astronomical Twilight 5:34 AM IST 7:44 PM IST
Moon 9:01 PM IST (2/28) 8:04 AM IST (2/28)
Length of Visible Light 12h 22m
Length of Day
11h 35m
Waning Gibbous, 93% of the Moon is Illuminated
Feb 28
Waning Gibbous
Mar 5
Last Quarter
Mar 12
New
Mar 19
First Quarter
Mar 27
Full

Hourly Weather History & Observations

Time (IST) Temp. Dew Point Humidity Pressure Visibility Wind Dir Wind Speed Gust Speed Precip Events Conditions
12:00 AM 68.0 °F 41.0 °F 37% 30.04 in 1.2 mi Variable 3.5 mph - N/A   Haze
1:00 AM 66.2 °F 41.0 °F 40% 30.04 in 1.2 mi Variable 3.5 mph - N/A   Haze
2:00 AM 66.2 °F 41.0 °F 40% 30.04 in 1.2 mi Variable 2.3 mph - N/A   Haze
2:30 AM 66 °F 46 °F 37% 29.99 in 1 mi NNW 3.5 mph - -   Haze
3:00 AM 66.2 °F 41.0 °F 40% 30.04 in 1.2 mi Variable 5.8 mph - N/A   Haze
5:00 AM 62.6 °F 39.2 °F 42% 30.01 in 1.2 mi Calm Calm - N/A   Haze
5:30 AM 62 °F 42 °F 36% 30.00 in 1 mi NNE 2.3 mph - -   Haze
6:00 AM 64.4 °F 41.0 °F 42% 30.04 in 1.2 mi Variable 4.6 mph - N/A   Haze
7:00 AM 64.4 °F 39.2 °F 40% 30.06 in 1.6 mi Variable 5.8 mph - N/A   Haze
7:30 AM 64.4 °F 39.2 °F 40% 30.06 in 1.6 mi Variable 2.3 mph - N/A   Haze
8:00 AM 66.2 °F 39.2 °F 37% 30.09 in 1.6 mi Calm Calm - N/A   Haze
8:30 AM 67 °F 38 °F 24% 30.06 in 1 mi 3.5 mph - -   Haze
10:00 AM 75.2 °F 32.0 °F 21% 30.12 in 3.7 mi Variable 4.6 mph - N/A   Unknown
11:00 AM 75.2 °F 30.2 °F 19% 30.15 in 3.7 mi Variable 6.9 mph - N/A   Unknown
11:30 AM 75 °F 32 °F 11% 30.07 in 2 mi West 5.8 mph - -  
2:30 PM 79 °F 29 °F 8% 30.01 in 2 mi NW 6.9 mph - -  
3:00 PM 80.6 °F 30.2 °F 16% 30.06 in 3.7 mi NW 6.9 mph - N/A   Unknown
4:00 PM 80.6 °F 30.2 °F 16% 30.06 in 3.7 mi Variable 8.1 mph - N/A   Unknown
5:00 PM 78.8 °F 28.4 °F 16% 30.06 in 3.7 mi Variable 6.9 mph - N/A   Unknown
5:30 PM 77 °F 30 °F 9% 29.99 in 2 mi North 6.9 mph - -  
6:00 PM 75.2 °F 30.2 °F 19% 30.06 in 3.7 mi Variable 6.9 mph - N/A   Unknown
8:00 PM 71.6 °F 35.6 °F 27% 30.09 in 3.1 mi Variable 5.8 mph - N/A   Haze
9:00 PM 69.8 °F 37.4 °F 31% 30.09 in 2.5 mi Variable 5.8 mph - N/A   Haze
10:00 PM 68.0 °F 37.4 °F 33% 30.12 in 2.5 mi Calm Calm - N/A   Haze
11:00 PM 66.2 °F 37.4 °F 35% 30.12 in 2.5 mi Variable 3.5 mph - N/A   Haze
11:30 PM 67 °F 39 °F 24% 30.09 in 2 mi North 4.6 mph - -   Haze